Change the Weather History Date:

Sunday, November 10, 2013

  Actual Average Record
Temperature  
Mean Temperature 54 °F -  
Max Temperature 66 °F 69 °F 77 °F (2012)
Min Temperature 41 °F 40 °F 28 °F (2011)
Degree Days  
Heating Degree Days 12    
Growing Degree Days 4 (Base 50)    
Moisture  
Dew Point 48 °F    
Average Humidity 86    
Maximum Humidity 100    
Minimum Humidity 64    
Precipitation  
Precipitation 0.00 in - - ()
Sea Level Pressure  
Sea Level Pressure 30.26 in    
Wind  
Wind Speed 2 mph (South)    
Max Wind Speed 12 mph    
Max Gust Speed -    
Visibility 8 miles    
Events Fog    
Averages and records for this station are not official NWS values.
T = Trace of Precipitation, MM = Missing Value Source: NWS Daily Summary

Daily Weather History Graph

Daily Weather History Graph

Search for Another Location

Airport or City:

Trip Planner

Search our weather history database for the weather conditions in past years. The results will help you decide how hot, cold, wet, or windy it might be!

Date:

Astronomy

Nov. 10, 2013 Rise Set
Actual Time 7:07 AM CST 5:49 PM CST
Civil Twilight 6:41 AM CST 6:15 PM CST
Nautical Twilight 6:13 AM CST 6:44 PM CST
Astronomical Twilight 5:44 AM CST 7:12 PM CST
Moon 1:30 PM CST (11/10) 12:16 AM CST (11/10)
Length of Visible Light 11h 33m
Length of Day
10h 42m
First Quarter, 56% of the Moon is Illuminated
Nov 10
First Quarter
Nov 17
Full
Nov 25
Last Quarter
Dec 2
New
Dec 9
First Quarter

Hourly Weather History & Observations

Time (CST) Temp. Windchill Dew Point Humidity Pressure Visibility Wind Dir Wind Speed Gust Speed Precip Events Conditions
12:15 AM 42.8 °F - 42.8 °F 100% 30.20 in 10.0 mi Calm Calm - N/A   Clear
12:35 AM 42.8 °F - 41.0 °F 93% 30.19 in 10.0 mi Calm Calm - N/A   Clear
12:55 AM 42.8 °F - 41.0 °F 93% 30.20 in 10.0 mi Calm Calm - N/A   Clear
1:15 AM 41.0 °F - 39.2 °F 93% 30.20 in 10.0 mi Calm Calm - N/A   Clear
1:35 AM 41.0 °F - 39.2 °F 93% 30.20 in 10.0 mi Calm Calm - N/A   Clear
1:55 AM 41.0 °F - 39.2 °F 93% 30.20 in 10.0 mi Calm Calm - N/A   Clear
2:15 AM 41.0 °F - 39.2 °F 93% 30.20 in 10.0 mi Calm Calm - N/A   Clear
2:35 AM 41.0 °F - 37.4 °F 87% 30.20 in 10.0 mi Calm Calm - N/A   Clear
2:55 AM 41.0 °F 39.0 °F 39.2 °F 93% 30.20 in 10.0 mi NNE 3.5 mph - N/A   Clear
3:15 AM 41.0 °F - 39.2 °F 93% 30.20 in 10.0 mi Calm Calm - N/A   Clear
3:35 AM 41.0 °F - 37.4 °F 87% 30.21 in 10.0 mi Calm Calm - N/A   Clear
3:55 AM 41.0 °F 39.0 °F 39.2 °F 93% 30.21 in 10.0 mi NNE 3.5 mph - N/A   Clear
4:15 AM 41.0 °F 39.0 °F 39.2 °F 93% 30.22 in 10.0 mi NNE 3.5 mph - N/A   Scattered Clouds
4:35 AM 41.0 °F 37.1 °F 37.4 °F 87% 30.23 in 10.0 mi NNE 5.8 mph - N/A   Mostly Cloudy
4:55 AM 41.0 °F 39.0 °F 39.2 °F 93% 30.23 in 0.2 mi North 3.5 mph - N/A Fog Fog
5:15 AM 41.0 °F - 39.2 °F 93% 30.23 in 0.2 mi Calm Calm - N/A Fog Fog
5:35 AM 41.0 °F - 41.0 °F 100% 30.23 in 0.2 mi Calm Calm - N/A Fog Fog
5:55 AM 41.0 °F - 41.0 °F 100% 30.24 in 0.2 mi Calm Calm - N/A Fog Fog
6:15 AM 41.0 °F 38.0 °F 41.0 °F 100% 30.25 in 0.2 mi NNE 4.6 mph - N/A Fog Fog
6:35 AM 42.8 °F 40.1 °F 42.8 °F 100% 30.25 in 0.2 mi North 4.6 mph - N/A Fog Fog
6:55 AM 44.6 °F - 42.8 °F 93% 30.26 in 0.2 mi Calm Calm - N/A Fog Fog
7:15 AM 44.6 °F - 44.6 °F 100% 30.26 in 0.2 mi Calm Calm - N/A Fog Fog
7:35 AM 44.6 °F - 44.6 °F 100% 30.28 in 0.2 mi Calm Calm - N/A Fog Fog
7:55 AM 46.4 °F - 44.6 °F 93% 30.29 in 0.2 mi Calm Calm - N/A Fog Fog
8:15 AM 46.4 °F - 46.4 °F 100% 30.30 in 0.2 mi Calm Calm - N/A Fog Fog
8:35 AM 48.2 °F - 46.4 °F 93% 30.30 in 0.2 mi Calm Calm - N/A Fog Fog
8:55 AM 50.0 °F - 50.0 °F 100% 30.31 in 0.2 mi Calm Calm - N/A Fog Fog
9:15 AM 51.8 °F - 50.0 °F 94% 30.32 in 0.2 mi Calm Calm - N/A Fog Fog
9:35 AM 53.6 °F - 51.8 °F 94% 30.32 in 0.2 mi Calm Calm - N/A Fog Fog
9:55 AM 55.4 °F - 55.4 °F 100% 30.33 in 10.0 mi South 5.8 mph - N/A   Mostly Cloudy
10:15 AM 57.2 °F - 55.4 °F 94% 30.33 in 10.0 mi SSW 5.8 mph - N/A   Scattered Clouds
10:35 AM 59.0 °F - 59.0 °F 100% 30.33 in 10.0 mi South 8.1 mph - N/A   Scattered Clouds
10:55 AM 60.8 °F - 57.2 °F 88% 30.33 in 10.0 mi SSW 9.2 mph - N/A   Scattered Clouds
11:15 AM 64.4 °F - 55.4 °F 73% 30.32 in 10.0 mi South 11.5 mph - N/A   Mostly Cloudy
11:35 AM 66.2 °F - 55.4 °F 68% 30.31 in 10.0 mi South 10.4 mph - N/A   Scattered Clouds
11:55 AM 64.4 °F - 55.4 °F 73% 30.31 in 10.0 mi South 11.5 mph - N/A   Mostly Cloudy
12:15 PM 66.2 °F - 55.4 °F 68% 30.30 in 10.0 mi South 9.2 mph - N/A   Mostly Cloudy
12:35 PM 64.4 °F - 53.6 °F 68% 30.30 in 10.0 mi South 10.4 mph - N/A   Mostly Cloudy
12:55 PM 64.4 °F - 55.4 °F 73% 30.29 in 10.0 mi South 10.4 mph - N/A   Overcast
1:15 PM 64.4 °F - 55.4 °F 73% 30.28 in 10.0 mi South 8.1 mph - N/A   Overcast
1:35 PM 66.2 °F - 53.6 °F 64% 30.27 in 10.0 mi SSE 8.1 mph - N/A   Overcast
1:55 PM 64.4 °F - 53.6 °F 68% 30.26 in 10.0 mi SSE 8.1 mph - N/A   Overcast
2:15 PM 64.4 °F - 53.6 °F 68% 30.26 in 10.0 mi South 10.4 mph - N/A   Overcast
2:35 PM 64.4 °F - 53.6 °F 68% 30.26 in 10.0 mi South 8.1 mph - N/A   Overcast
2:55 PM 64.4 °F - 53.6 °F 68% 30.26 in 10.0 mi SSW 6.9 mph - N/A   Overcast
3:15 PM 64.4 °F - 53.6 °F 68% 30.25 in 10.0 mi South 6.9 mph - N/A   Overcast
3:35 PM 64.4 °F - 53.6 °F 68% 30.25 in 10.0 mi South 5.8 mph - N/A   Overcast
3:55 PM 66.2 °F - 53.6 °F 64% 30.25 in 10.0 mi SSE 9.2 mph - N/A   Overcast
4:15 PM 64.4 °F - 53.6 °F 68% 30.25 in 10.0 mi SSE 5.8 mph - N/A   Scattered Clouds
4:35 PM 66.2 °F - 53.6 °F 64% 30.25 in 10.0 mi SSE 6.9 mph - N/A   Scattered Clouds
4:55 PM 66.2 °F - 53.6 °F 64% 30.24 in 10.0 mi South 6.9 mph - N/A   Clear
5:15 PM 64.4 °F - 53.6 °F 68% 30.24 in 10.0 mi SSW 4.6 mph - N/A   Clear
5:35 PM 64.4 °F - 53.6 °F 68% 30.24 in 10.0 mi SSW 3.5 mph - N/A   Clear
5:55 PM 62.6 °F - 53.6 °F 72% 30.25 in 10.0 mi South 3.5 mph - N/A   Clear
6:15 PM 59.0 °F - 53.6 °F 82% 30.25 in 10.0 mi Calm Calm - N/A   Clear
6:35 PM 57.2 °F - 51.8 °F 82% 30.26 in 10.0 mi Calm Calm - N/A   Clear
6:55 PM 55.4 °F - 51.8 °F 88% 30.26 in 10.0 mi Calm Calm - N/A   Clear
7:15 PM 53.6 °F - 50.0 °F 88% 30.27 in 10.0 mi Calm Calm - N/A   Clear
7:35 PM 53.6 °F - 50.0 °F 88% 30.27 in 10.0 mi Calm Calm - N/A   Clear
7:55 PM 51.8 °F - 50.0 °F 94% 30.27 in 10.0 mi Calm Calm - N/A   Clear
8:15 PM 51.8 °F - 50.0 °F 94% 30.28 in 10.0 mi Calm Calm - N/A   Clear
8:35 PM 51.8 °F - 48.2 °F 88% 30.29 in 10.0 mi Calm Calm - N/A   Clear
8:55 PM 50.0 °F - 46.4 °F 87% 30.29 in 10.0 mi Calm Calm - N/A   Clear
9:15 PM 50.0 °F - 46.4 °F 87% 30.29 in 10.0 mi Calm Calm - N/A   Clear
9:35 PM 48.2 °F - 46.4 °F 93% 30.29 in 10.0 mi Calm Calm - N/A   Clear
9:55 PM 50.0 °F - 46.4 °F 87% 30.29 in 10.0 mi Calm Calm - N/A   Clear
10:15 PM 46.4 °F - 46.4 °F 100% 30.29 in 10.0 mi Calm Calm - N/A   Clear
10:35 PM 46.4 °F - 44.6 °F 93% 30.29 in 10.0 mi Calm Calm - N/A   Clear
10:55 PM 46.4 °F - 44.6 °F 93% 30.30 in 10.0 mi Calm Calm - N/A   Clear
11:15 PM 46.4 °F - 44.6 °F 93% 30.29 in 10.0 mi Calm Calm - N/A   Clear
11:35 PM 44.6 °F - 44.6 °F 100% 30.29 in 10.0 mi Calm Calm - N/A   Clear
11:55 PM 44.6 °F - 42.8 °F 93% 30.29 in 10.0 mi Calm Calm - N/A   Clear